GSAT-6

Last updated on Tue Oct 15 2024 00:02:40 GMT+0000 (Coordinated Universal Time)

1 40880U 15041A 24288.57271817 -.00000162 00000+0 00000+0 0 9991 2 40880 0.3323 91.6280 0003286 118.4252 102.2487 1.00270663 33477
UTC large
Height (km)
Speed (km/s)
/
Latitude / Longitude
Inclination (degrees)
Orbital Period (minutes)
Azimuth
Elevation
Range (km)
Doppler Factor

Next 0 passes for location: London (51.5072 / 0.1276)

Sorry there are no passes over London.